2019-342T00:13:23.299,   1, 180,   1,   120,   4,          0,     46.364,  99218.184,   106.393,   -19.780,     0.053,   205.297, 2, 5.486E-04, -1.00,   2,  2.867E-03,  6.711E-05,  2.262E-13,  1.570E-14,  4.923E+02,  3.416E+01, 255
2019-342T00:15:23.300,   1, 180,   1,   120,   4,          0,     46.364,  99218.184,   106.391,   -19.780,     0.053,   204.088, 2, 5.486E-04, -1.00,   2,  2.906E-03,  7.019E-05,  8.187E-14,  1.460E-14,  1.759E+02,  3.136E+01, 255
2019-342T00:17:23.302,   1, 180,   1,   120,   4,          0,     46.364,  99218.184,   106.388,   -19.779,     0.053,   202.879, 2, 5.486E-04, -1.00,   2,  3.015E-03,  7.015E-05,  1.237E-13,  1.509E-14,  2.561E+02,  3.122E+01, 255
2019-342T00:19:23.303,   1, 180,   1,   120,   4,          0,     46.364,  99218.184,   106.386,   -19.779,     0.053,   201.670, 2, 5.486E-04, -1.00,   2,  2.890E-03,  6.849E-05,  6.362E-14,  1.475E-14,  1.374E+02,  3.185E+01, 255
2019-342T01:11:23.339,   1, 180,   1,   120,   4,          0,     46.364,  99218.184,   106.328,   -19.766,     0.052,   170.229, 2, 5.486E-04, -1.00,   2,  3.219E-03,  7.069E-05,  4.991E-14,  1.429E-14,  9.677E+01,  2.771E+01, 255
2019-342T01:13:23.340,   1, 180,   1,   120,   4,          0,     46.364,  99218.184,   106.326,   -19.766,     0.052,   169.020, 2, 5.486E-04, -1.00,   2,  2.905E-03,  6.812E-05,  7.590E-14,  1.475E-14,  1.631E+02,  3.170E+01, 255
2019-342T01:15:23.341,   1, 180,   1,   120,   4,          0,     46.364,  99218.184,   106.324,   -19.765,     0.052,   167.811, 2, 5.486E-04, -1.00,   2,  3.204E-03,  6.964E-05,  1.776E-13,  1.477E-14,  3.459E+02,  2.876E+01, 255
2019-342T01:17:23.343,   1, 180,   1,   120,   4,          0,     46.364,  99218.184,   106.322,   -19.765,     0.052,   166.601, 2, 5.486E-04, -1.00,   2,  3.204E-03,  6.961E-05,  1.503E-13,  1.481E-14,  2.927E+02,  2.884E+01, 255
2019-342T02:17:23.384,   1, 180,   1,   120,   4,          0,     46.364,  99218.184,   106.254,   -19.750,     0.052,   130.324, 2, 5.486E-04, -1.00,   2,  3.090E-03,  6.995E-05,  8.365E-14,  1.486E-14,  1.690E+02,  3.002E+01, 255
2019-342T02:19:23.385,   1, 180,   1,   120,   4,          0,     46.364,  99218.184,   106.252,   -19.749,     0.052,   129.115, 2, 5.486E-04, -1.00,   2,  3.278E-03,  7.098E-05,  6.923E-14,  1.446E-14,  1.318E+02,  2.753E+01, 255
2019-342T02:21:23.387,   1, 180,   1,   120,   4,          0,     46.364,  99218.184,   106.250,   -19.749,     0.052,   127.905, 2, 5.486E-04, -1.00,   2,  3.314E-03,  7.196E-05,  1.074E-13,  1.464E-14,  2.023E+02,  2.756E+01, 255
2019-342T02:23:23.388,   1, 180,   1,   120,   4,          0,     46.364,  99218.184,   106.248,   -19.748,     0.052,   126.696, 2, 5.486E-04, -1.00,   2,  3.139E-03,  7.225E-05,  2.685E-14,  1.451E-14,  5.338E+01,  2.884E+01, 255
2019-342T02:27:23.391,   1, 180,   1,   120,   4,          0,     46.364,  99218.184,   106.243,   -19.747,     0.051,   124.278, 2, 5.486E-04, -1.00,   2,  2.687E-03,  6.817E-05,  1.194E-13,  1.488E-14,  2.773E+02,  3.455E+01, 255
2019-342T02:29:23.392,   1, 180,   1,   120,   4,          0,     46.364,  99218.184,   106.241,   -19.747,     0.051,   123.068, 2, 5.486E-04, -1.00,   2,  2.613E-03,  6.805E-05,  1.502E-13,  1.575E-14,  3.587E+02,  3.764E+01, 255
2019-342T02:31:23.393,   1, 180,   1,   120,   4,          0,     46.364,  99218.184,   106.239,   -19.746,     0.051,   121.859, 2, 5.486E-04, -1.00,   2,  2.819E-03,  6.880E-05,  1.776E-13,  1.504E-14,  3.931E+02,  3.330E+01, 255
2019-342T02:57:23.411,   1, 180,   1,   120,   4,          0,     46.364,  99218.184,   106.209,   -19.740,     0.051,   106.139, 2, 5.486E-04, -1.00,   2,  2.983E-03,  6.963E-05,  7.098E-14,  1.449E-14,  1.485E+02,  3.032E+01, 255
2019-342T02:59:23.413,   1, 180,   1,   120,   4,          0,     46.364,  99218.184,   106.207,   -19.739,     0.051,   104.930, 2, 5.486E-04, -1.00,   2,  3.265E-03,  7.321E-05,  4.305E-14,  1.452E-14,  8.228E+01,  2.774E+01, 255
2019-342T03:01:23.414,   1, 180,   1,   120,   4,          0,     46.364,  99218.184,   106.205,   -19.739,     0.051,   103.720, 2, 5.486E-04, -1.00,   2,  3.295E-03,  7.228E-05,  9.349E-14,  1.486E-14,  1.771E+02,  2.814E+01, 255
2019-342T03:05:23.417,   1, 180,   1,   120,   4,          0,     46.364,  99218.184,   106.200,   -19.738,     0.051,   101.302, 2, 5.486E-04, -1.00,   2,  3.362E-03,  7.285E-05,  1.026E-13,  1.494E-14,  1.905E+02,  2.773E+01, 255
2019-342T03:07:23.418,   1, 180,   1,   120,   4,          0,     46.364,  99218.184,   106.198,   -19.737,     0.051,   100.093, 2, 5.486E-04, -1.00,   2,  2.759E-03,  6.665E-05,  1.563E-13,  1.511E-14,  3.536E+02,  3.419E+01, 255
2019-342T03:09:23.420,   1, 180,   1,   120,   4,          0,     46.364,  99218.184,   106.196,   -19.737,     0.051,    98.883, 2, 5.486E-04, -1.00,   2,  2.799E-03,  6.858E-05,  5.704E-14,  1.441E-14,  1.272E+02,  3.213E+01, 255
2019-342T03:11:23.421,   1, 180,   1,   120,   4,          0,     46.364,  99218.184,   106.194,   -19.736,     0.051,    97.674, 2, 5.486E-04, -1.00,   2,  3.135E-03,  7.018E-05,  8.610E-14,  1.472E-14,  1.714E+02,  2.930E+01, 255
2019-342T03:13:23.422,   1, 180,   1,   120,   4,          0,     46.364,  99218.184,   106.191,   -19.736,     0.051,    96.465, 2, 5.486E-04, -1.00,   2,  2.936E-03,  6.958E-05,  9.096E-14,  1.528E-14,  1.933E+02,  3.248E+01, 255
2019-342T03:15:23.424,   1, 180,   1,   120,   4,          0,     46.364,  99218.184,   106.189,   -19.735,     0.051,    95.256, 2, 5.486E-04, -1.00,   2,  3.257E-03,  7.260E-05,  7.967E-14,  1.473E-14,  1.527E+02,  2.823E+01, 255
2019-342T03:17:23.425,   1, 180,   1,   120,   4,          0,     46.364,  99218.184,   106.187,   -19.735,     0.051,    94.046, 2, 5.486E-04, -1.00,   2,  3.132E-03,  7.083E-05,  3.820E-14,  1.398E-14,  7.611E+01,  2.786E+01, 255
2019-342T03:19:23.426,   1, 180,   1,   120,   4,          0,     46.364,  99218.184,   106.185,   -19.734,     0.051,    92.837, 2, 5.486E-04, -1.00,   2,  3.213E-03,  7.064E-05,  1.177E-13,  1.452E-14,  2.286E+02,  2.821E+01, 255
2019-342T03:21:23.428,   1, 180,   1,   120,   4,          0,     46.364,  99218.184,   106.182,   -19.734,     0.051,    91.628, 2, 5.486E-04, -1.00,   2,  3.089E-03,  6.835E-05,  9.137E-14,  1.425E-14,  1.846E+02,  2.880E+01, 255
2019-342T03:23:23.429,   1, 180,   1,   120,   4,          0,     46.364,  99218.184,   106.180,   -19.733,     0.051,    90.419, 2, 5.486E-04, -1.00,   2,  2.987E-03,  6.886E-05,  5.221E-14,  1.423E-14,  1.091E+02,  2.974E+01, 255
2019-342T03:25:23.430,   1, 180,   1,   120,   4,          0,     46.364,  99218.184,   106.178,   -19.733,     0.051,    89.209, 2, 5.486E-04, -1.00,   2,  2.895E-03,  6.896E-05,  3.757E-14,  1.441E-14,  8.100E+01,  3.108E+01, 255
2019-342T08:31:23.640,   1, 180,   1,   120,   4,          0,     46.364,  99218.184,   105.827,   -19.656,     0.048,   264.194, 2, 5.486E-04, -1.00,   2,  2.955E-03,  6.978E-05,  5.401E-14,  1.430E-14,  1.141E+02,  3.021E+01, 255
2019-342T08:33:23.641,   1, 180,   1,   120,   4,          0,     46.364,  99218.184,   105.825,   -19.656,     0.048,   262.985, 2, 5.486E-04, -1.00,   2,  3.290E-03,  7.170E-05,  6.176E-14,  1.468E-14,  1.172E+02,  2.784E+01, 255
2019-342T08:35:23.642,   1, 180,   1,   120,   4,          0,     46.364,  99218.184,   105.822,   -19.655,     0.048,   261.775, 2, 5.486E-04, -1.00,   2,  3.162E-03,  7.110E-05,  1.197E-13,  1.501E-14,  2.362E+02,  2.963E+01, 255
2019-342T08:37:23.644,   1, 180,   1,   120,   4,          0,     46.364,  99218.184,   105.820,   -19.655,     0.048,   260.566, 2, 5.486E-04, -1.00,   2,  3.023E-03,  6.867E-05,  1.397E-13,  1.478E-14,  2.885E+02,  3.052E+01, 255
2019-342T08:41:23.647,   1, 180,   1,   120,   4,          0,     46.364,  99218.184,   105.815,   -19.654,     0.048,   258.148, 2, 5.486E-04, -1.00,   2,  3.253E-03,  7.241E-05,  1.064E-13,  1.474E-14,  2.042E+02,  2.827E+01, 255
2019-342T08:43:23.648,   1, 180,   1,   120,   4,          0,     46.364,  99218.184,   105.813,   -19.653,     0.048,   256.938, 2, 5.486E-04, -1.00,   2,  3.190E-03,  7.086E-05,  7.008E-14,  1.490E-14,  1.371E+02,  2.914E+01, 255
2019-342T08:45:23.649,   1, 180,   1,   120,   4,          0,     46.364,  99218.184,   105.811,   -19.653,     0.048,   255.729, 2, 5.486E-04, -1.00,   2,  3.534E-03,  7.348E-05,  1.303E-13,  1.476E-14,  2.301E+02,  2.607E+01, 255
2019-342T08:47:23.651,   1, 180,   1,   120,   4,          0,     46.364,  99218.184,   105.808,   -19.652,     0.048,   254.520, 2, 5.486E-04, -1.00,   2,  3.150E-03,  7.185E-05,  6.965E-14,  1.440E-14,  1.380E+02,  2.852E+01, 255
2019-342T08:49:23.652,   1, 180,   1,   120,   4,          0,     46.364,  99218.184,   105.806,   -19.652,     0.048,   253.311, 2, 5.486E-04, -1.00,   2,  3.084E-03,  7.001E-05,  1.269E-13,  1.491E-14,  2.568E+02,  3.018E+01, 255
2019-342T09:01:23.660,   1, 180,   1,   120,   4,          0,     46.364,  99218.184,   105.792,   -19.649,     0.048,   246.055, 2, 5.486E-04, -1.00,   2,  3.191E-03,  7.165E-05,  1.424E-13,  1.486E-14,  2.786E+02,  2.906E+01, 255
2019-342T09:03:23.662,   1, 180,   1,   120,   4,          0,     46.364,  99218.184,   105.790,   -19.648,     0.048,   244.846, 2, 5.486E-04, -1.00,   2,  3.009E-03,  6.983E-05,  6.264E-14,  1.438E-14,  1.299E+02,  2.983E+01, 255
2019-342T09:05:23.663,   1, 180,   1,   120,   4,          0,     46.364,  99218.184,   105.787,   -19.648,     0.048,   243.637, 2, 5.486E-04, -1.00,   2,  3.217E-03,  7.202E-05,  7.644E-14,  1.458E-14,  1.483E+02,  2.830E+01, 255
2019-342T09:07:23.664,   1, 180,   1,   120,   4,          0,     46.364,  99218.184,   105.785,   -19.647,     0.048,   242.427, 2, 5.486E-04, -1.00,   2,  3.003E-03,  6.979E-05,  9.609E-14,  1.483E-14,  1.997E+02,  3.083E+01, 255
2019-342T09:09:23.666,   1, 180,   1,   120,   4,          0,     46.364,  99218.184,   105.783,   -19.647,     0.048,   241.218, 2, 5.486E-04, -1.00,   2,  3.073E-03,  7.009E-05,  6.112E-14,  1.430E-14,  1.241E+02,  2.905E+01, 255
2019-342T09:11:23.667,   1, 180,   1,   120,   4,          0,     46.364,  99218.184,   105.780,   -19.646,     0.048,   240.009, 2, 5.486E-04, -1.00,   2,  3.179E-03,  7.180E-05,  8.622E-14,  1.510E-14,  1.693E+02,  2.963E+01, 255
2019-342T09:13:23.668,   1, 180,   1,   120,   4,          0,     46.364,  99218.184,   105.778,   -19.646,     0.048,   238.800, 2, 5.486E-04, -1.00,   2,  3.272E-03,  7.325E-05,  3.384E-14,  1.436E-14,  6.456E+01,  2.740E+01, 255
2019-342T09:15:23.670,   1, 180,   1,   120,   4,          0,     46.364,  99218.184,   105.776,   -19.645,     0.048,   237.590, 2, 5.486E-04, -1.00,   2,  3.289E-03,  7.241E-05,  1.118E-13,  1.458E-14,  2.121E+02,  2.766E+01, 255
2019-342T09:17:23.671,   1, 180,   1,   120,   4,          0,     46.364,  99218.184,   105.773,   -19.645,     0.048,   236.381, 2, 5.486E-04, -1.00,   2,  3.288E-03,  7.214E-05,  6.427E-14,  1.427E-14,  1.220E+02,  2.709E+01, 255
2019-342T09:19:23.673,   1, 180,   1,   120,   4,          0,     46.364,  99218.184,   105.771,   -19.644,     0.048,   235.172, 2, 5.486E-04, -1.00,   2,  3.137E-03,  7.065E-05,  8.466E-14,  1.458E-14,  1.684E+02,  2.902E+01, 255
2019-342T09:21:23.674,   1, 180,   1,   120,   4,          0,     46.364,  99218.184,   105.769,   -19.644,     0.048,   233.963, 2, 5.486E-04, -1.00,   2,  3.096E-03,  7.088E-05,  3.706E-14,  1.445E-14,  7.472E+01,  2.914E+01, 255
2019-342T09:23:23.675,   1, 180,   1,   120,   4,          0,     46.364,  99218.184,   105.766,   -19.643,     0.048,   232.753, 2, 5.486E-04, -1.00,   2,  2.942E-03,  6.978E-05,  1.130E-13,  1.523E-14,  2.397E+02,  3.231E+01, 255
2019-342T09:25:23.677,   1, 180,   1,   120,   4,          0,     46.364,  99218.184,   105.764,   -19.643,     0.048,   231.544, 2, 5.486E-04, -1.00,   2,  3.324E-03,  7.346E-05,  1.243E-13,  1.475E-14,  2.335E+02,  2.769E+01, 255
2019-342T09:27:23.678,   1, 180,   1,   120,   4,          0,     46.364,  99218.184,   105.762,   -19.642,     0.048,   230.335, 2, 5.486E-04, -1.00,   2,  3.031E-03,  7.095E-05,  7.093E-14,  1.468E-14,  1.461E+02,  3.022E+01, 255
2019-342T12:37:23.808,   1, 180,   1,   120,   4,          0,     46.364,  99218.184,   105.537,   -19.595,     0.046,   115.456, 2, 5.486E-04, -1.00,   2,  2.843E-03,  7.014E-05,  7.281E-14,  1.488E-14,  1.599E+02,  3.267E+01, 255
2019-342T12:39:23.809,   1, 180,   1,   120,   4,          0,     46.364,  99218.184,   105.535,   -19.594,     0.046,   114.247, 2, 5.486E-04, -1.00,   2,  2.882E-03,  6.961E-05,  5.080E-14,  1.414E-14,  1.100E+02,  3.063E+01, 255
2019-342T12:41:23.811,   1, 180,   1,   120,   4,          0,     46.364,  99218.184,   105.533,   -19.594,     0.046,   113.037, 2, 5.486E-04, -1.00,   2,  2.993E-03,  7.037E-05,  5.448E-14,  1.427E-14,  1.136E+02,  2.975E+01, 255
2019-342T12:43:23.812,   1, 180,   1,   120,   4,          0,     46.364,  99218.184,   105.530,   -19.593,     0.046,   111.828, 2, 5.486E-04, -1.00,   2,  2.876E-03,  6.857E-05,  3.348E-14,  1.419E-14,  7.265E+01,  3.079E+01, 255
2019-342T19:47:24.102,   1, 180,   1,   120,   4,          0,     46.364,  99218.184,   105.015,   -19.486,     0.042,   215.467, 2, 5.486E-04, -1.00,   2,  2.915E-03,  6.578E-05,  1.321E-13,  1.449E-14,  2.830E+02,  3.102E+01, 255
2019-342T19:49:24.104,   1, 180,   1,   120,   4,          0,     46.364,  99218.184,   105.013,   -19.485,     0.042,   214.257, 2, 5.486E-04, -1.00,   2,  2.797E-03,  6.541E-05,  1.351E-13,  1.510E-14,  3.015E+02,  3.370E+01, 255
2019-342T19:51:24.105,   1, 180,   1,   120,   4,          0,     46.364,  99218.184,   105.010,   -19.485,     0.042,   213.048, 2, 5.486E-04, -1.00,   2,  2.990E-03,  6.618E-05,  1.375E-13,  1.489E-14,  2.870E+02,  3.109E+01, 255
2019-342T19:53:24.106,   1, 180,   1,   120,   4,          0,     46.364,  99218.184,   105.008,   -19.484,     0.042,   211.839, 2, 5.486E-04, -1.00,   2,  2.989E-03,  6.531E-05,  2.054E-13,  1.526E-14,  4.289E+02,  3.187E+01, 255
2019-342T20:05:24.115,   1, 180,   1,   120,   4,          0,     46.364,  99218.184,   104.993,   -19.481,     0.042,   204.583, 2, 5.486E-04, -1.00,   2,  3.358E-03,  6.824E-05,  1.628E-13,  1.525E-14,  3.025E+02,  2.834E+01, 255
2019-342T20:07:24.116,   1, 180,   1,   120,   4,          0,     46.364,  99218.184,   104.990,   -19.481,     0.042,   203.374, 2, 5.486E-04, -1.00,   2,  3.320E-03,  6.727E-05,  1.620E-13,  1.510E-14,  3.046E+02,  2.840E+01, 255
2019-342T20:09:24.117,   1, 180,   1,   120,   4,          0,     46.364,  99218.184,   104.988,   -19.480,     0.042,   202.165, 2, 5.486E-04, -1.00,   2,  3.444E-03,  6.829E-05,  1.049E-13,  1.442E-14,  1.901E+02,  2.614E+01, 255
2019-342T20:11:24.119,   1, 180,   1,   120,   4,          0,     46.364,  99218.184,   104.985,   -19.480,     0.042,   200.956, 2, 5.486E-04, -1.00,   2,  3.134E-03,  6.535E-05,  6.944E-14,  1.468E-14,  1.383E+02,  2.923E+01, 255
2019-342T20:13:24.120,   1, 180,   1,   120,   4,          0,     46.364,  99218.184,   104.983,   -19.479,     0.042,   199.746, 2, 5.486E-04, -1.00,   2,  3.402E-03,  6.754E-05,  2.380E-13,  1.538E-14,  4.367E+02,  2.821E+01, 255
2019-342T20:15:24.121,   1, 180,   1,   120,   4,          0,     46.364,  99218.184,   104.980,   -19.479,     0.042,   198.537, 2, 5.486E-04, -1.00,   2,  3.366E-03,  6.809E-05,  9.293E-14,  1.452E-14,  1.723E+02,  2.693E+01, 255
2019-342T20:17:24.123,   1, 180,   1,   120,   4,          0,     46.364,  99218.184,   104.978,   -19.478,     0.042,   197.328, 2, 5.486E-04, -1.00,   2,  3.275E-03,  6.805E-05,  7.105E-14,  1.460E-14,  1.354E+02,  2.782E+01, 255
2019-342T20:19:24.124,   1, 180,   1,   120,   4,          0,     46.364,  99218.184,   104.976,   -19.478,     0.042,   196.119, 2, 5.486E-04, -1.00,   2,  3.086E-03,  6.772E-05,  1.674E-13,  1.553E-14,  3.385E+02,  3.140E+01, 255
